Location: El Diablo
(32.4667°N, 116.4500°W)
Time: 03:23:58
(UTC+00:00)

Cosmos 2333 Rocket - Visible Passes

Search period start: 20 January 2026 00:00
Search period end: 30 January 2026 00:00
Orbit: 838 x 865 km, 70.8° (Epoch: 19 January)

Date Brightness Start Highest point End Pass type
(mag) Time Alt. Az. Time Alt. Az. Time Alt. Az.
26 Jan 4.4 03:08:22 10° N 03:08:48 12° N 03:08:48 12° N visible
27 Jan 3.9 02:56:08 10° N 02:57:43 17° NNE 02:57:43 17° NNE visible
28 Jan 3.5 02:43:54 10° N 02:46:51 22° NNE 02:46:51 22° NNE visible
28 Jan 4.6 04:27:47 10° NW 04:28:56 16° NW 04:28:56 16° NW visible
29 Jan 3.1 02:31:40 10° N 02:36:18 26° ENE 02:36:18 26° ENE visible
29 Jan 4.1 04:15:34 10° NW 04:18:25 25° WNW 04:18:25 25° WNW visible
